"Pseudo-MPEC" for P22p4Fq

Created 2026 Aug 17 23:35:19 UT using Find_Orb

Click here for an explanation of pseudo-MPECs

 
 Astrometry: 
     P22p4Fq*0C2026 08 09.47079623 41 27.825+02 55 02.39   ~89Co 22.04wXNEOCPF52
     P22p4Fq 0C2026 08 09.48289823 41 28.120+02 55 04.72   ~89Co 21.58wXNEOCPF52
     P22p4Fq 0C2026 08 09.50714523 41 28.717+02 55 08.76   ~89Co 21.23wXNEOCPF52
     P22p4Fq 0C2026 08 09.54470923 41 29.620+02 55 15.65   ~89H5 21.75GVNEOCPF51
     P22p4Fq 0C2026 08 09.54552723 41 29.642+02 55 15.78   ~89H5 21.62GVNEOCPF51
     P22p4Fq KB2026 08 17.34115723 44 18.238+03 09 42.05   ~8HA5 21.4 GXNEOCP734
     P22p4Fq KB2026 08 17.38387723 44 18.756+03 09 44.39   ~8HA5 21.2 GXNEOCP734

Station data:
(734) Farpoint Observatory, Eskridge  (N38.890239 W96.002420)  US/Kansas.
   Observer G. Hug. 0.69-m reflector + CCD.
(F51) Pan-STARRS 1, Haleakala  (N20.707234 W156.255910)  US/Hawaii.
   Observers J. Herman, T. Lowe, P. Minguez, A. Schultz, I. Smith. Measurers
   K. Chambers, T. de Boer, J. Fairlamb, H. Gao, M. Huber, C.-C. Lin, E.
   Magnier, Y. Ramanjooloo, R. Wainscoat, R. Weryk. 1.8-m Ritchey-Chrétien +
   CCD.
(F52) Pan-STARRS 2, Haleakala  (N20.707382 W156.255910)  US/Hawaii.
   Observers J. Herman, T. Lowe, P. Minguez, A. Schultz, I. Smith. Measurers
   K. Chambers, T. de Boer, J. Fairlamb, H. Gao, M. Huber, C.-C. Lin, E.
   Magnier, Y. Ramanjooloo, R. Wainscoat, R. Weryk. 1.8-m Ritchey-Chrétien +
   CCD.

Orbital elements:  P22p4Fq
   Perihelion 2026 Nov 3.031479 +/- 45 TT =  0:45:19.8 (JD 2461347.531479)
Epoch 2026 Aug 17.0 TT = JDT 2461269.5   Earth MOID: 0.5967      AutoNEOCP
M 342.827784625 +/- 14              (J2000 ecliptic)
n   0.220067792 +/- 0.0772          Peri.  182.642603 +/- 35
a   2.717054760 +/- 0.635           Node   198.853221 +/- 6
e   0.41321929 +/- 0.0806           Incl.    3.176536 +/- 0.43
P   4.47865                H 19.79  G  0.15   U 11.0  SR
q 1.594315318 +/- 0.174    Q 3.839794202 +/- 1.06
From 7 observations 2026 Aug. 9-17; mean residual 0".18
Residuals in arcseconds: 
260809 F52  .15-  .33-    260809 F51  .10+  .30+    260817 734  .16+  .06+    
260809 F52  .13-  .08-    260809 F51  .14+  .30+    
260809 F52  .05+  .19-    260817 734  .17-  .09-    

Ephemerides (geocentric):
Date (UTC) HH   RA             Dec           delta  r     elong  mag " sig PA
---- --------  ------------   ------------  ------ ------ -----  --- --------
2026 08 18 00  23 44 27.916   +03 10 19.21  .78844 1.7267 146.8 21.4 9.93 113
2026 08 18 01  23 44 28.506   +03 10 20.92  .78813 1.7266 146.8 21.4 10.7 113
2026 08 18 02  23 44 29.093   +03 10 22.60  .78782 1.7265 146.8 21.4 11.4 113
2026 08 18 03  23 44 29.678   +03 10 24.26  .78752 1.7263 146.9 21.4 12.1 114
2026 08 18 04  23 44 30.259   +03 10 25.88  .78721 1.7262 146.9 21.4 12.9 114
2026 08 18 05  23 44 30.838   +03 10 27.48  .78691 1.7261 146.9 21.4 13.6 114
2026 08 18 06  23 44 31.414   +03 10 29.05  .78660 1.7259 147.0 21.4 14.4 114
2026 08 18 07  23 44 31.987   +03 10 30.60  .78630 1.7258 147.0 21.4 15.2 114
2026 08 18 08  23 44 32.557   +03 10 32.11  .78599 1.7257 147.1 21.4 15.9 115
2026 08 18 09  23 44 33.124   +03 10 33.60  .78569 1.7255 147.1 21.4 16.7 115
2026 08 18 10  23 44 33.689   +03 10 35.06  .78538 1.7254 147.1 21.4 17.5 115
2026 08 18 11  23 44 34.251   +03 10 36.49  .78508 1.7253 147.2 21.4 18.3 115
2026 08 18 12  23 44 34.810   +03 10 37.90  .78478 1.7251 147.2 21.4 19.1 115
2026 08 18 13  23 44 35.366   +03 10 39.28  .78447 1.7250 147.2 21.4 19.9 115
2026 08 18 14  23 44 35.919   +03 10 40.63  .78417 1.7249 147.3 21.4 20.7 115
2026 08 18 15  23 44 36.470   +03 10 41.95  .78387 1.7247 147.3 21.4 21.5 115
2026 08 18 16  23 44 37.018   +03 10 43.25  .78357 1.7246 147.4 21.4 22.4 115
2026 08 18 17  23 44 37.562   +03 10 44.52  .78326 1.7245 147.4 21.4 23.2 116
2026 08 18 18  23 44 38.104   +03 10 45.76  .78296 1.7243 147.4 21.4 24.0 116
2026 08 18 19  23 44 38.644   +03 10 46.97  .78266 1.7242 147.5 21.4 24.9 116
2026 08 18 20  23 44 39.180   +03 10 48.15  .78236 1.7241 147.5 21.4 25.7 116
2026 08 18 21  23 44 39.714   +03 10 49.31  .78206 1.7239 147.5 21.4 26.6 116
2026 08 18 22  23 44 40.244   +03 10 50.44  .78176 1.7238 147.6 21.4 27.4 116
2026 08 18 23  23 44 40.772   +03 10 51.54  .78146 1.7237 147.6 21.4 28.3 116
2026 08 19 00  23 44 41.297   +03 10 52.62  .78116 1.7235 147.7 21.4 29.2 116
2026 08 19 01  23 44 41.820   +03 10 53.66  .78086 1.7234 147.7 21.4 30.1 116
2026 08 19 02  23 44 42.339   +03 10 54.68  .78056 1.7233 147.7 21.4 30.9 116
2026 08 19 03  23 44 42.856   +03 10 55.68  .78026 1.7231 147.8 21.4 31.8 116
2026 08 19 04  23 44 43.370   +03 10 56.64  .77996 1.7230 147.8 21.4 32.7 116
2026 08 19 05  23 44 43.881   +03 10 57.58  .77966 1.7229 147.8 21.4 33.6 116
2026 08 19 06  23 44 44.389   +03 10 58.48  .77936 1.7227 147.9 21.4 34.6 116
2026 08 19 07  23 44 44.895   +03 10 59.37  .77906 1.7226 147.9 21.4 35.5 116
2026 08 19 08  23 44 45.397   +03 11 00.22  .77876 1.7225 148.0 21.4 36.4 116
2026 08 19 09  23 44 45.897   +03 11 01.04  .77846 1.7224 148.0 21.4 37.3 116
2026 08 19 10  23 44 46.394   +03 11 01.84  .77817 1.7222 148.0 21.4 38.3 116
2026 08 19 11  23 44 46.888   +03 11 02.61  .77787 1.7221 148.1 21.4 39.2 116
2026 08 19 12  23 44 47.379   +03 11 03.35  .77757 1.7220 148.1 21.4 40.2 117
2026 08 19 13  23 44 47.868   +03 11 04.07  .77727 1.7218 148.2 21.4 41.1 117
2026 08 19 14  23 44 48.354   +03 11 04.76  .77698 1.7217 148.2 21.4 42.1 117
2026 08 19 15  23 44 48.837   +03 11 05.41  .77668 1.7216 148.2 21.4 43.0 117
2026 08 19 16  23 44 49.317   +03 11 06.05  .77639 1.7214 148.3 21.4 44.0 117
2026 08 19 17  23 44 49.794   +03 11 06.65  .77609 1.7213 148.3 21.3 45.0 117
2026 08 19 18  23 44 50.269   +03 11 07.22  .77579 1.7212 148.3 21.3 46.0 117
2026 08 19 19  23 44 50.740   +03 11 07.77  .77550 1.7210 148.4 21.3 47.0 117
2026 08 19 20  23 44 51.209   +03 11 08.29  .77520 1.7209 148.4 21.3 48.0 117
2026 08 19 21  23 44 51.675   +03 11 08.79  .77491 1.7208 148.5 21.3 49.0 117
2026 08 19 22  23 44 52.138   +03 11 09.25  .77461 1.7207 148.5 21.3 50.0 117
2026 08 19 23  23 44 52.599   +03 11 09.69  .77432 1.7205 148.5 21.3 51.0 117